HVK374 EDJA-EDLW

Flight info

Callsign HVK374
Flight time N/A
Altitude 32000
Route LUPOL5A LUPOL Z714 PELOG DCT ADEMI ADEMI2A
Aircraft A400/H-SDE2E3FGHIJ4J5M1RWXY/LB1D1

Departure

Time 2026-05-09 08:53
Airport Memmingen Allgau Airport (EDJA)

Arrival

Time N/A
Airport Dortmund Airport (EDLW)
Time Latitude Longitude Altitude Speed Heading
2026-05-09 08:30 47.98746 10.22794 2086 ft 0 kts 50°
2026-05-09 08:45 47.98726 10.22836 2084 ft 1 kts 182°
2026-05-09 08:45 47.98725 10.22836 2084 ft 0 kts 184°
2026-05-09 08:48 47.98703 10.22790 2086 ft 13 kts 245°
2026-05-09 08:48 47.98671 10.22725 2088 ft 12 kts 213°
2026-05-09 08:48 47.98549 10.22715 2091 ft 24 kts 193°
2026-05-09 08:49 47.98434 10.22556 2096 ft 4 kts 215°
2026-05-09 08:49 47.98429 10.22552 2096 ft 0 kts 214°
2026-05-09 08:49 47.98428 10.22551 2096 ft 2 kts 208°
2026-05-09 08:49 47.98391 10.22553 2097 ft 10 kts 163°
2026-05-09 08:50 47.98366 10.22621 2097 ft 8 kts 72°
2026-05-09 08:50 47.98411 10.22731 2095 ft 16 kts 52°
2026-05-09 08:50 47.98480 10.22899 2093 ft 21 kts 70°
2026-05-09 08:50 47.98563 10.23126 2090 ft 29 kts 60°
2026-05-09 08:51 47.98666 10.23410 2089 ft 36 kts 63°
2026-05-09 08:51 47.98811 10.23788 2086 ft 48 kts 58°
2026-05-09 08:51 47.99001 10.24248 2077 ft 56 kts 64°
2026-05-09 08:51 47.99193 10.24777 2072 ft 59 kts 60°
2026-05-09 08:52 47.99434 10.25408 2068 ft 34 kts 64°
2026-05-09 08:52 47.99496 10.25460 2067 ft 5 kts 318°
2026-05-09 08:52 47.99470 10.25422 2068 ft 10 kts 221°
2026-05-09 08:52 47.99435 10.25346 2067 ft 7 kts 238°
2026-05-09 08:53 47.99403 10.25267 2068 ft 12 kts 238°
2026-05-09 08:53 47.99146 10.24628 2076 ft 140 kts 240°
2026-05-09 08:53 47.98547 10.23097 2568 ft 191 kts 239°
2026-05-09 08:53 47.97813 10.21289 3361 ft 213 kts 238°
2026-05-09 08:54 47.96992 10.19395 4260 ft 224 kts 238°
2026-05-09 08:54 47.96196 10.17386 5569 ft 224 kts 240°
2026-05-09 08:54 47.95390 10.15280 6597 ft 248 kts 240°
2026-05-09 08:54 47.94491 10.12946 6948 ft 271 kts 241°
2026-05-09 08:55 47.93780 10.10314 7015 ft 276 kts 257°
2026-05-09 08:55 47.93705 10.07472 6995 ft 276 kts 279°
2026-05-09 08:55 47.94371 10.04799 6998 ft 277 kts 301°
2026-05-09 08:55 47.95573 10.02561 7001 ft 277 kts 312°
2026-05-09 08:56 47.96933 10.00512 7000 ft 277 kts 318°
2026-05-09 08:56 47.98545 9.98961 6998 ft 278 kts 337°
2026-05-09 08:56 48.00373 9.98117 6995 ft 278 kts 344°
2026-05-09 08:56 48.02186 9.97046 7130 ft 287 kts 337°
2026-05-09 08:57 48.04082 9.95822 7941 ft 301 kts 335°
2026-05-09 08:57 48.05972 9.94551 9383 ft 293 kts 335°
2026-05-09 08:57 48.07818 9.93294 10739 ft 294 kts 335°
2026-05-09 08:57 48.09708 9.91999 11859 ft 302 kts 335°
2026-05-09 08:58 48.11644 9.90670 12975 ft 309 kts 335°
2026-05-09 08:58 48.13616 9.89312 14083 ft 314 kts 335°
2026-05-09 08:58 48.15623 9.87930 15178 ft 320 kts 335°
2026-05-09 08:58 48.17642 9.86537 16241 ft 326 kts 335°
2026-05-09 08:59 48.19722 9.85102 17306 ft 331 kts 335°
2026-05-09 08:59 48.21833 9.83643 18226 ft 336 kts 335°
2026-05-09 08:59 48.23984 9.82155 18777 ft 342 kts 335°
2026-05-09 08:59 48.26129 9.80670 18984 ft 345 kts 335°
2026-05-09 09:00 48.28308 9.79159 19002 ft 345 kts 335°
2026-05-09 09:00 48.30492 9.77645 19001 ft 345 kts 335°
2026-05-09 09:00 48.32672 9.76132 19000 ft 345 kts 335°
2026-05-09 09:00 48.34860 9.74611 18999 ft 345 kts 335°
2026-05-09 09:01 48.37042 9.73092 19002 ft 345 kts 335°
2026-05-09 09:01 48.39225 9.71572 19001 ft 345 kts 335°
2026-05-09 09:01 48.41382 9.70069 19000 ft 346 kts 335°
2026-05-09 09:01 48.43570 9.68543 19000 ft 346 kts 335°
2026-05-09 09:02 48.45759 9.67014 19000 ft 346 kts 335°
2026-05-09 09:02 48.47946 9.65485 19000 ft 346 kts 335°
2026-05-09 09:02 48.50111 9.63970 19000 ft 346 kts 335°
2026-05-09 09:02 48.52307 9.62432 19000 ft 346 kts 335°
2026-05-09 09:03 48.54497 9.60898 18998 ft 346 kts 335°
2026-05-09 09:03 48.56687 9.59361 19001 ft 346 kts 335°
2026-05-09 09:03 48.58845 9.57845 19001 ft 346 kts 335°
2026-05-09 09:03 48.61032 9.56307 18999 ft 345 kts 335°
2026-05-09 09:04 48.63208 9.54776 19000 ft 345 kts 334°
2026-05-09 09:04 48.65391 9.53238 19000 ft 345 kts 335°
2026-05-09 09:04 48.67540 9.51723 19001 ft 344 kts 335°
2026-05-09 09:04 48.69713 9.50189 19002 ft 344 kts 334°
2026-05-09 09:05 48.71886 9.48655 18998 ft 344 kts 334°
2026-05-09 09:05 48.74058 9.47119 19000 ft 344 kts 334°
2026-05-09 09:05 48.76234 9.45579 19000 ft 344 kts 334°
2026-05-09 09:05 48.78410 9.44037 19000 ft 345 kts 334°
2026-05-09 09:06 48.80587 9.42493 18999 ft 344 kts 334°
2026-05-09 09:06 48.82768 9.40945 19002 ft 352 kts 334°
2026-05-09 09:06 48.85058 9.39318 19006 ft 374 kts 334°
2026-05-09 09:06 48.87428 9.37632 19005 ft 384 kts 334°
2026-05-09 09:07 48.89870 9.35893 19004 ft 388 kts 334°
2026-05-09 09:07 48.92322 9.34147 19001 ft 388 kts 334°
2026-05-09 09:07 48.94775 9.32396 18997 ft 388 kts 334°
2026-05-09 09:07 48.97195 9.30668 19000 ft 388 kts 334°
2026-05-09 09:08 48.99651 9.28912 19000 ft 388 kts 334°
2026-05-09 09:08 49.02101 9.27158 19002 ft 388 kts 334°
2026-05-09 09:08 49.04552 9.25402 19000 ft 388 kts 334°
2026-05-09 09:08 49.06999 9.23646 19000 ft 388 kts 334°
2026-05-09 09:09 49.09413 9.21912 19001 ft 388 kts 334°
2026-05-09 09:09 49.11872 9.20145 19001 ft 388 kts 334°
2026-05-09 09:09 49.14315 9.18386 19001 ft 388 kts 334°
2026-05-09 09:09 49.16737 9.16641 19001 ft 388 kts 334°
2026-05-09 09:10 49.19188 9.14873 18998 ft 388 kts 334°